CW3202 Weather Reports


Display with metric or nautical units.
time (UTC)temp
F
wind
direction
speed
MPH
gust
MPH
rain 1hr
in
rain 24hr
in
rain mn
in
humidity
%
barometer
mb
20260901173425 63 61 1.0 5.0 0.00 0.00 0.00 82 1010.7
20260901172924 63 49 1.0 5.0 0.00 0.00 0.00 82 1010.6
20260901172424 63 42 3.0 5.0 0.00 0.00 0.00 83 1010.5
20260901171124 62 90 2.0 4.0 0.00 0.00 0.00 83 1010.5
20260901170624 62 360 3.0 3.0 0.00 0.00 0.00 84 1010.5
20260901165724 62 42 3.0 4.0 0.00 0.00 0.00 84 1010.4
20260901165224 62 360 2.0 3.0 0.00 0.00 0.00 84 1010.4
20260901164725 62 360 2.0 3.0 0.00 0.00 0.00 85 1010.3
20260901164225 61 360 1.0 4.0 0.00 0.00 0.00 85 1010.3
20260901163524 61 18 3.0 4.0 0.00 0.00 0.00 86 1010.4
20260901163025 61 35 3.0 4.0 0.00 0.00 0.00 86 1010.5
20260901162524 61 25 2.0 4.0 0.00 0.00 0.00 86 1010.6
20260901162025 61 36 2.0 3.0 0.00 0.00 0.00 86 1010.6
20260901161525 61 31 3.0 3.0 0.00 0.00 0.00 87 1010.6
20260901161024 61 46 3.0 3.0 0.00 0.00 0.00 87 1010.6
20260901160525 61 66 1.0 3.0 0.00 0.00 0.00 87 1010.6
20260901160025 60 66 0.0 3.0 0.00 0.00 0.00 88 1010.7
20260901155524 60 66 2.0 3.0 0.00 0.00 0.00 88 1010.7
20260901155024 60 42 2.0 3.0 0.00 0.00 0.00 88 1010.7
20260901154524 60 40 1.0 3.0 0.00 0.00 0.00 88 1010.6
20260901154024 60 40 1.0 3.0 0.00 0.00 0.00 89 1010.8
20260901153524 60 54 3.0 3.0 0.00 0.00 0.00 89 1010.7
20260901153024 60 56 1.0 2.0 0.00 0.00 0.00 90 1010.8
20260901152524 60 360 1.0 2.0 0.00 0.00 0.00 90 1010.7
20260901152024 60 198 0.0 2.0 0.00 0.00 0.00 91 1010.6
20260901151324 59 197 1.0 2.0 0.00 0.00 0.00 91 1010.7
20260901150824 59 198 2.0 2.0 0.00 0.00 0.00 92 1010.6
20260901150324 59 198 1.0 1.0 0.00 0.00 0.00 92 1010.7
20260901145624 59 198 1.0 2.0 0.00 0.00 0.00 92 1010.7
20260901145125 58 198 2.0 2.0 0.00 0.00 0.00 92 1010.7
20260901144626 58 198 1.0 1.0 0.00 0.00 0.00 92 1010.6
20260901144124 58 198 0.0 1.0 0.00 0.00 0.00 93 1010.6
20260901143624 58 198 0.0 1.0 0.00 0.00 0.00 93 1010.6
20260901142924 58 198 0.0 1.0 0.00 0.00 0.00 93 1010.7
20260901142424 58 198 0.0 0.0 0.00 0.00 0.00 93 1010.7
20260901141924 58 198 0.0 0.0 0.00 0.00 0.00 93 1010.6
20260901141425 58 198 0.0 0.0 0.00 0.00 0.00 93 1010.5
20260901140925 58 198 0.0 0.0 0.00 0.00 0.00 93 1010.5
20260901140424 58 198 0.0 0.0 0.00 0.00 0.00 93 1010.5
20260901135724 58 198 0.0 0.0 0.00 0.00 0.00 93 1010.5
20260901135224 58 198 0.0 0.0 0.00 0.00 0.00 93 1010.5
20260901134724 58 198 0.0 0.0 0.00 0.00 0.00 93 1010.6
20260901134225 58 198 0.0 0.0 0.00 0.00 0.00 93 1010.5
20260901133724 58 198 0.0 0.0 0.00 0.00 0.00 93 1010.5
20260901133225 58 198 0.0 0.0 0.00 0.00 0.00 93 1010.4
20260901132724 58 198 0.0 0.0 0.00 0.00 0.00 92 1010.4
20260901132224 58 198 0.0 0.0 0.00 0.00 0.00 93 1010.4
20260901131724 58 198 0.0 0.0 0.00 0.00 0.00 93 1010.4
20260901131225 58 198 0.0 0.0 0.00 0.00 0.00 93 1010.4
20260901130725 58 198 0.0 0.0 0.00 0.00 0.00 93 1010.4
20260901130225 58 198 0.0 0.0 0.00 0.00 0.00 93 1010.4
20260901125324 58 198 0.0 0.0 0.00 0.00 0.00 93 1010.4
20260901124825 58 198 0.0 0.0 0.00 0.00 0.00 92 1010.4
20260901124324 58 198 0.0 0.0 0.00 0.00 0.00 92 1010.4
20260901123824 58 198 0.0 0.0 0.00 0.00 0.00 92 1010.5
20260901123325 58 198 0.0 0.0 0.00 0.00 0.00 92 1010.5
20260901122824 58 198 0.0 0.0 0.00 0.00 0.00 92 1010.5
20260901122324 58 198 0.0 0.0 0.00 0.00 0.00 92 1010.5
20260901121824 58 198 0.0 0.0 0.00 0.00 0.00 92 1010.4
20260901121326 58 198 0.0 0.0 0.00 0.00 0.00 92 1010.4
20260901120825 58 198 0.0 0.0 0.00 0.00 0.00 92 1010.4
20260901115924 58 198 0.0 1.0 0.00 0.00 0.00 92 1010.5
20260901115424 58 198 0.0 1.0 0.00 0.00 0.00 92 1010.5
20260901114924 58 198 0.0 2.0 0.00 0.00 0.00 92 1010.5
20260901114224 58 198 2.0 2.0 0.00 0.00 0.00 92 1010.6
20260901113724 58 198 0.0 0.0 0.00 0.00 0.00 91 1010.6
20260901113225 58 198 0.0 1.0 0.00 0.00 0.00 92 1010.5
20260901112724 58 198 0.0 1.0 0.00 0.00 0.00 91 1010.5
20260901112224 58 198 0.0 1.0 0.00 0.00 0.00 91 1010.5
20260901111724 58 198 1.0 1.0 0.00 0.00 0.00 91 1010.4
20260901111224 58 198 1.0 1.0 0.00 0.00 0.00 91 1010.3
20260901110725 58 198 0.0 3.0 0.00 0.00 0.00 91 1010.3
20260901110224 58 198 0.0 3.0 0.00 0.00 0.00 91 1010.3
20260901105724 58 197 2.0 5.0 0.00 0.00 0.00 91 1010.2
20260901105225 58 200 2.0 5.0 0.00 0.00 0.00 91 1010.2
20260901104725 58 174 3.0 3.0 0.00 0.00 0.00 92 1010.2
20260901104224 58 173 0.0 5.0 0.00 0.00 0.00 92 1010.2
20260901103725 58 175 2.0 5.0 0.00 0.00 0.00 92 1010.2
20260901103024 58 141 1.0 3.0 0.00 0.00 0.00 92 1010.2
20260901102525 58 154 2.0 3.0 0.00 0.00 0.00 92 1010.2
20260901102025 58 171 1.0 2.0 0.00 0.00 0.00 92 1010.3
20260901101525 58 192 1.0 2.0 0.00 0.00 0.00 92 1010.3
20260901100625 58 192 2.0 2.0 0.00 0.00 0.00 92 1010.2
20260901100124 58 191 1.0 2.0 0.00 0.00 0.00 92 1010.2
20260901095624 58 192 1.0 2.0 0.00 0.00 0.00 92 1010.3
20260901095125 58 192 0.0 4.0 0.00 0.00 0.00 92 1010.3
20260901094425 58 188 2.0 4.0 0.00 0.00 0.00 92 1010.2
20260901093924 58 223 3.0 3.0 0.00 0.00 0.00 92 1010.2
20260901093424 58 232 2.0 3.0 0.00 0.00 0.00 92 1010.1
20260901092925 58 186 1.0 3.0 0.00 0.00 0.00 92 1010.1
20260901092425 58 181 3.0 4.0 0.00 0.00 0.00 92 1010.1
20260901091924 58 181 3.0 5.0 0.00 0.00 0.00 92 1010.2
20260901091225 58 199 3.0 5.0 0.00 0.00 0.00 93 1010.1
20260901090724 58 193 3.0 5.0 0.00 0.00 0.00 93 1010.2
20260901090225 58 194 2.0 4.0 0.00 0.00 0.00 93 1010.2
20260901085724 58 215 4.0 5.0 0.00 0.00 0.00 94 1010.2
20260901085224 57 202 2.0 5.0 0.00 0.00 0.00 94 1010.1
20260901084725 57 204 2.0 3.0 0.00 0.00 0.00 94 1010.2
20260901084225 57 230 2.0 2.0 0.00 0.00 0.00 95 1010.2
20260901083724 57 230 1.0 2.0 0.00 0.00 0.00 95 1010.2
20260901083224 57 231 1.0 1.0 0.00 0.00 0.00 96 1010.3
20260901082724 56 231 0.0 1.0 0.00 0.00 0.00 96 1010.3
20260901082224 56 231 0.0 1.0 0.00 0.00 0.00 96 1010.3
20260901081525 56 231 1.0 1.0 0.00 0.00 0.00 95 1010.2
20260901080824 56 231 0.0 1.0 0.00 0.00 0.00 95 1010.2
20260901080125 56 231 1.0 1.0 0.00 0.00 0.00 95 1010.1
20260901075624 56 231 0.0 0.0 0.00 0.00 0.00 95 1010.0
20260901075124 56 231 0.0 0.0 0.00 0.00 0.00 94 1010.0
20260901074625 56 231 0.0 0.0 0.00 0.00 0.00 94 1010.0
20260901073924 56 231 0.0 1.0 0.00 0.00 0.00 94 1009.9
20260901073425 56 231 0.0 1.0 0.00 0.00 0.00 94 1009.8
20260901072924 56 231 0.0 2.0 0.00 0.00 0.00 94 1009.6
20260901072424 56 231 1.0 2.0 0.00 0.00 0.00 94 1009.6
20260901071925 56 231 1.0 2.0 0.00 0.00 0.00 94 1009.5
20260901071424 56 231 2.0 2.0 0.00 0.00 0.00 93 1009.5
20260901070925 57 231 2.0 3.0 0.00 0.00 0.00 93 1009.4
20260901070425 57 231 1.0 3.0 0.00 0.00 0.00 93 1009.4
20260901065724 57 231 1.0 2.0 0.00 0.00 0.00 93 1009.4
20260901065225 57 231 2.0 6.0 0.00 0.00 0.00 93 1009.3
20260901064725 57 232 1.0 6.0 0.00 0.00 0.00 92 1009.3
20260901064024 57 206 4.0 4.0 0.00 0.00 0.00 92 1009.3
20260901063524 57 190 2.0 4.0 0.00 0.00 0.00 92 1009.2
20260901062824 58 198 2.0 4.0 0.00 0.00 0.00 92 1009.3
20260901062324 58 209 1.0 4.0 0.00 0.00 0.00 91 1009.3
20260901061624 58 192 1.0 4.0 0.00 0.00 0.00 91 1009.2
20260901060925 58 202 4.0 4.0 0.00 0.00 0.00 90 1009.3
20260901060424 58 190 2.0 6.0 0.00 0.00 0.00 90 1009.3
20260901055924 58 199 2.0 6.0 0.00 0.00 0.00 90 1009.3
20260901055424 59 198 1.0 3.0 0.00 0.00 0.00 89 1009.2
20260901054924 59 200 1.0 5.0 0.00 0.00 0.00 89 1009.3
20260901054424 59 202 2.0 5.0 0.00 0.00 0.00 89 1009.3
20260901053924 59 205 5.0 5.0 0.00 0.00 0.00 88 1009.4
20260901053424 60 196 2.0 3.0 0.00 0.00 0.00 87 1009.3
20260901052925 60 195 3.0 5.0 0.00 0.00 0.00 87 1009.3
20260901052424 60 194 3.0 5.0 0.00 0.00 0.00 87 1009.2
20260901051925 60 204 2.0 4.0 0.00 0.00 0.00 87 1009.2
20260901051330 60 197 4.0 5.0 0.00 0.00 0.00 86 1009.2
20260901050824 61 192 2.0 5.0 0.00 0.00 0.00 86 1009.2
20260901050324 61 199 5.0 5.0 0.00 0.00 0.00 85 1009.2
20260901045824 61 188 2.0 4.0 0.00 0.00 0.00 85 1009.1
20260901045324 62 195 4.0 5.0 0.00 0.00 0.00 85 1009.0
20260901044625 62 186 2.0 5.0 0.00 0.00 0.00 84 1009.1
20260901044125 62 163 2.0 5.0 0.00 0.00 0.00 85 1009.1
20260901043624 62 162 1.0 4.0 0.00 0.00 0.00 84 1008.9
20260901042924 62 184 2.0 2.0 0.00 0.00 0.00 84 1008.7
20260901042424 62 179 2.0 2.0 0.00 0.00 0.00 83 1008.5
20260901041726 63 181 1.0 1.0 0.00 0.00 0.00 82 1008.4
20260901041224 63 181 0.0 1.0 0.00 0.00 0.00 80 1008.3
20260901040725 64 181 0.0 1.0 0.00 0.00 0.00 80 1008.4
20260901040224 64 181 0.0 2.0 0.00 0.00 0.00 80 1008.4
20260901035725 64 181 0.0 2.0 0.00 0.00 0.00 80 1008.4
20260901035225 65 181 2.0 3.0 0.00 0.00 0.00 78 1008.4
20260901034725 65 180 0.0 3.0 0.00 0.00 0.00 78 1008.4
20260901034225 66 184 1.0 1.0 0.00 0.00 0.00 77 1008.3
20260901033724 66 183 1.0 3.0 0.00 0.00 0.00 77 1008.3
20260901033224 66 185 1.0 3.0 0.00 0.00 0.00 76 1008.1
20260901032724 67 185 2.0 4.0 0.00 0.00 0.00 76 1008.1
20260901032025 68 184 1.0 4.0 0.00 0.00 0.00 75 1008.0
20260901031525 68 160 2.0 3.0 0.00 0.00 0.00 74 1007.9
20260901031025 69 181 3.0 3.0 0.00 0.00 0.00 73 1007.6
20260901030524 69 360 2.0 5.0 0.00 0.00 0.00 72 1007.7
20260901030024 70 189 2.0 5.0 0.00 0.00 0.00 72 1007.6
20260901025524 70 169 2.0 5.0 0.00 0.00 0.00 71 1007.6
20260901025024 71 175 4.0 5.0 0.00 0.00 0.00 70 1007.6
20260901024524 71 181 4.0 5.0 0.00 0.00 0.00 69 1007.4
20260901024024 72 163 2.0 7.0 0.00 0.00 0.00 68 1007.3
20260901023524 72 185 3.0 7.0 0.00 0.00 0.00 66 1007.3
20260901023024 73 170 5.0 5.0 0.00 0.00 0.00 65 1007.3
20260901022525 74 177 4.0 6.0 0.00 0.00 0.00 65 1007.3
20260901022025 75 152 3.0 7.0 0.00 0.00 0.00 63 1007.2
20260901021525 75 188 4.0 7.0 0.00 0.00 0.00 62 1007.0
20260901021024 76 202 1.0 6.0 0.00 0.00 0.00 56 1007.1
20260901020524 76 227 6.0 6.0 0.00 0.00 0.00 55 1007.0
20260901020024 77 219 4.0 6.0 0.00 0.00 0.00 56 1007.1
20260901014924 78 223 5.0 8.0 0.00 0.00 0.00 54 1007.0
20260901014425 78 208 6.0 8.0 0.00 0.00 0.00 54 1007.0
20260901013924 78 219 4.0 9.0 0.00 0.00 0.00 53 1006.9
20260901013425 78 194 4.0 9.0 0.00 0.00 0.00 52 1007.0
20260901012925 79 177 4.0 8.0 0.00 0.00 0.00 52 1007.0
20260901012424 80 211 5.0 7.0 0.00 0.00 0.00 53 1006.9
20260901011925 80 194 7.0 8.0 0.00 0.00 0.00 53 1006.9
20260901011424 80 198 5.0 10.0 0.00 0.00 0.00 51 1006.9
20260901010724 80 209 10.0 10.0 0.00 0.00 0.00 51 1006.8
20260901010225 81 202 5.0 6.0 0.00 0.00 0.00 50 1006.7
20260901005724 81 208 5.0 5.0 0.00 0.00 0.00 50 1006.9
20260901005225 81 232 2.0 7.0 0.00 0.00 0.00 50 1006.8
20260901004725 80 225 5.0 9.0 0.00 0.00 0.00 49 1006.8
20260901004224 81 233 6.0 10.0 0.00 0.00 0.00 50 1006.8
20260901003625 81 224 8.0 10.0 0.00 0.00 0.00 50 1006.8
20260901002925 81 192 7.0 9.0 0.00 0.00 0.00 51 1006.8
20260901002225 82 175 4.0 12.0 0.00 0.00 0.00 49 1006.8
20260901001724 82 197 9.0 12.0 0.00 0.00 0.00 49 1006.8
20260901001225 82 247 12.0 12.0 0.00 0.00 0.00 47 1006.8
20260901000725 82 263 3.0 8.0 0.00 0.00 0.00 46 1006.8
20260901000226 82 262 2.0 8.0 0.00 0.00 0.00 46 1006.8
20260831235724 82 262 3.0 7.0 0.00 0.00 0.00 47 1006.9
20260831235224 83 254 1.0 9.0 0.00 0.00 0.00 45 1006.8
20260831234725 83 261 3.0 9.0 0.00 0.00 0.00 45 1006.8
20260831234224 83 229 6.0 7.0 0.00 0.00 0.00 45 1006.9
20260831233724 84 309 7.0 7.0 0.00 0.00 0.00 44 1006.9
20260831233224 84 253 2.0 7.0 0.00 0.00 0.00 44 1006.9
20260831232724 84 227 1.0 3.0 0.00 0.00 0.00 45 1006.9
20260831232224 83 227 2.0 4.0 0.00 0.00 0.00 44 1007.0
20260831231724 83 241 1.0 4.0 0.00 0.00 0.00 45 1007.1
20260831231225 82 262 3.0 4.0 0.00 0.00 0.00 48 1007.0
20260831230724 82 300 0.0 4.0 0.00 0.00 0.00 45 1007.1
20260831230224 82 279 4.0 5.0 0.00 0.00 0.00 45 1007.1
20260831225724 82 246 2.0 9.0 0.00 0.00 0.00 45 1007.1
20260831225225 83 242 5.0 9.0 0.00 0.00 0.00 44 1007.1
20260831224725 83 305 2.0 7.0 0.00 0.00 0.00 44 1007.3
20260831224224 83 223 5.0 7.0 0.00 0.00 0.00 44 1007.4
20260831223724 84 261 2.0 5.0 0.00 0.00 0.00 43 1007.4
20260831223224 84 300 2.0 5.0 0.00 0.00 0.00 43 1007.4
20260831222725 83 223 4.0 5.0 0.00 0.00 0.00 45 1007.4
20260831222224 83 198 5.0 5.0 0.00 0.00 0.00 44 1007.4
20260831221724 84 223 3.0 5.0 0.00 0.00 0.00 43 1007.4
20260831221224 84 227 5.0 5.0 0.00 0.00 0.00 42 1007.6
20260831220724 83 173 2.0 6.0 0.00 0.00 0.00 43 1007.5
20260831220225 83 220 3.0 6.0 0.00 0.00 0.00 43 1007.7
20260831215725 83 223 6.0 6.0 0.00 0.00 0.00 43 1007.6
20260831215224 83 215 2.0 5.0 0.00 0.00 0.00 42 1007.6
20260831214725 84 237 4.0 5.0 0.00 0.00 0.00 43 1007.7
20260831214024 82 167 4.0 7.0 0.00 0.00 0.00 44 1007.8
20260831213524 82 277 2.0 7.0 0.00 0.00 0.00 44 1007.9
20260831213025 81 178 2.0 5.0 0.00 0.00 0.00 46 1007.9
20260831212525 81 213 4.0 5.0 0.00 0.00 0.00 46 1008.0
20260831212025 81 252 4.0 4.0 0.00 0.00 0.00 46 1008.0
20260831211524 81 264 3.0 3.0 0.00 0.00 0.00 46 1008.2
20260831211025 81 250 1.0 4.0 0.00 0.00 0.00 45 1008.2
20260831210525 81 252 3.0 4.0 0.00 0.00 0.00 46 1008.2
20260831205624 80 273 2.0 6.0 0.00 0.00 0.00 48 1008.4
20260831205124 80 13 3.0 6.0 0.00 0.00 0.00 50 1008.4
20260831204625 80 256 2.0 8.0 0.00 0.00 0.00 49 1008.5
20260831204125 79 240 3.0 8.0 0.00 0.00 0.00 47 1008.5
20260831203624 79 261 2.0 7.0 0.00 0.00 0.00 49 1008.6
20260831203124 79 284 4.0 6.0 0.00 0.00 0.00 49 1008.7
20260831202424 80 167 1.0 6.0 0.00 0.00 0.00 51 1008.8
20260831201924 80 207 6.0 6.0 0.00 0.00 0.00 50 1008.9
20260831201424 79 235 1.0 4.0 0.00 0.00 0.00 50 1008.9
20260831200925 79 178 2.0 3.0 0.00 0.00 0.00 50 1009.0
20260831200424 78 309 0.0 5.0 0.00 0.00 0.00 52 1009.1
20260831195924 78 280 3.0 5.0 0.00 0.00 0.00 53 1009.1
20260831195226 78 226 3.0 4.0 0.00 0.00 0.00 50 1009.1
20260831194724 78 180 1.0 4.0 0.00 0.00 0.00 52 1009.1
20260831194224 78 209 4.0 4.0 0.00 0.00 0.00 53 1009.2
20260831193726 78 267 2.0 4.0 0.00 0.00 0.00 52 1009.2
20260831193024 77 41 1.0 4.0 0.00 0.00 0.00 55 1009.3
20260831192525 77 96 3.0 4.0 0.00 0.00 0.00 55 1009.4
20260831192024 76 281 1.0 5.0 0.00 0.00 0.00 56 1009.6
20260831191525 75 302 1.0 5.0 0.00 0.00 0.00 55 1009.6
20260831191025 75 190 1.0 4.0 0.00 0.00 0.00 57 1009.6
20260831190525 76 281 3.0 4.0 0.00 0.00 0.00 56 1009.9
20260831190024 76 220 0.0 4.0 0.00 0.00 0.00 59 1010.0
20260831185125 75 28 3.0 4.0 0.00 0.00 0.00 60 1010.1
20260831184624 75 141 2.0 3.0 0.00 0.00 0.00 60 1010.1
20260831183925 73 134 0.0 4.0 0.00 0.00 0.00 64 1010.2
20260831183425 73 50 3.0 4.0 0.00 0.00 0.00 65 1010.2
20260831182924 72 159 2.0 4.0 0.00 0.00 0.00 66 1010.3
20260831182224 71 185 3.0 4.0 0.00 0.00 0.00 67 1010.5
20260831181725 71 34 3.0 4.0 0.00 0.00 0.00 66 1010.5
20260831181225 71 81 3.0 4.0 0.00 0.00 0.00 67 1010.6
20260831180724 71 55 2.0 4.0 0.00 0.00 0.00 66 1010.7
20260831180224 71 170 4.0 4.0 0.00 0.00 0.00 69 1010.7
20260831175724 69 177 1.0 2.0 0.00 0.00 0.00 72 1010.8
20260831175224 68 215 2.0 2.0 0.00 0.00 0.00 73 1010.9
20260831174524 67 216 2.0 2.0 0.00 0.00 0.00 74 1010.9
20260831174025 67 215 2.0 3.0 0.00 0.00 0.00 75 1010.9
20260831173524 66 245 2.0 4.0 0.00 0.00 0.00 77 1011.0